FW2408 Weather Reports


time (UTC)temp
C
wind
direction
speed
KPH
gust
KPH
rain 1hr
cm
rain 24hr
cm
rain mn
cm
humidity
%
barometer
mb
20200531081533 11 315 4.8 17.7 0.00 0.03 0.00 72 1014.3
20200531081051 11 10 0.0 8.0 0.00 0.03 0.00 72 1014.3
20200531080526 11 10 1.6 8.0 0.00 0.03 0.00 72 1014.3
20200531080304 11 344 1.6 6.4 0.00 0.03 0.00 71 1014.2
20200531075528 11 296 1.6 8.0 0.00 0.03 0.00 71 1014.2
20200531075109 11 40 1.6 17.7 0.00 0.03 0.00 71 1014.1
20200531074620 11 297 4.8 19.3 0.00 0.03 0.00 70 1014.0
20200531074015 11 312 4.8 19.3 0.00 0.03 0.00 70 1014.0
20200531073552 11 5 3.2 16.1 0.00 0.03 0.00 69 1014.0
20200531073114 11 339 1.6 9.7 0.00 0.03 0.00 68 1014.0
20200531072505 12 17 1.6 11.3 0.00 0.03 0.00 67 1014.0
20200531072051 12 323 0.0 6.4 0.00 0.03 0.00 67 1014.0
20200531071616 12 323 1.6 14.5 0.00 0.03 0.00 66 1013.9
20200531070548 12 355 1.6 12.9 0.00 0.03 0.00 64 1013.7
20200531070008 12 11 1.6 6.4 0.00 0.03 0.00 63 1013.7
20200531065547 12 331 3.2 12.9 0.00 0.03 0.00 62 1013.7
20200531065032 12 355 3.2 12.9 0.00 0.03 0.00 61 1013.7
20200531064039 13 17 3.2 14.5 0.00 0.03 0.00 59 1013.8
20200531063517 13 267 6.4 14.5 0.00 0.03 0.00 58 1013.8
20200531063141 13 268 3.2 11.3 0.00 0.03 0.00 58 1013.7
20200531062536 13 9 1.6 9.7 0.00 0.03 0.00 57 1013.7
20200531062004 13 296 4.8 16.1 0.00 0.03 0.00 57 1013.8
20200531061618 13 279 6.4 16.1 0.00 0.18 0.00 57 1013.7
20200531061022 13 311 3.2 16.1 0.00 0.18 0.00 56 1013.6
20200531060107 13 277 4.8 11.3 0.00 0.18 0.00 57 1013.6
20200531055049 14 277 3.2 12.9 0.00 0.18 0.00 59 1013.6
20200531054521 14 277 3.2 17.7 0.00 0.18 0.00 59 1013.6
20200531054111 14 75 6.4 17.7 0.00 0.18 0.00 60 1013.6
20200531053534 15 347 6.4 17.7 0.00 0.18 0.00 65 1013.5
20200531053021 15 23 4.8 11.3 0.00 0.18 0.00 69 1013.5
20200531052546 15 286 1.6 8.0 0.00 0.18 0.00 70 1013.5
20200531052029 15 292 1.6 8.0 0.00 0.18 0.00 69 1013.4
20200531051502 15 261 0.0 4.8 0.00 0.28 0.18 69 1013.4
20200531051042 15 220 1.6 6.4 0.00 0.28 0.18 68 1013.3
20200531050521 15 360 1.6 9.7 0.00 0.28 0.18 69 1013.3
20200531045527 15 135 3.2 12.9 0.00 0.28 0.18 68 1013.1
20200531045002 16 254 0.0 6.4 0.00 0.28 0.18 68 1013.2
20200531044737 16 254 1.6 6.4 0.00 0.28 0.18 68 1013.1
20200531044020 16 324 0.0 0.0 0.00 0.28 0.18 67 1013.1
20200531043118 16 295 0.0 8.0 0.00 0.28 0.18 67 1013.1
20200531042517 16 314 1.6 8.0 0.00 0.28 0.18 67 1013.1
20200531042109 16 258 1.6 8.0 0.00 0.28 0.18 67 1013.0
20200531041659 16 341 0.0 16.1 0.00 0.28 0.18 67 1013.0
20200531041036 16 5 4.8 12.9 0.00 0.28 0.18 66 1013.0
20200531040605 16 281 3.2 8.0 0.00 0.28 0.18 67 1012.9
20200531040115 17 288 1.6 8.0 0.00 0.28 0.18 67 1012.9
20200531035604 17 344 3.2 8.0 0.00 0.28 0.18 67 1012.9
20200531035037 17 360 1.6 11.3 0.00 0.28 0.18 66 1012.9
20200531034524 17 268 3.2 14.5 0.00 0.28 0.18 66 1013.0
20200531034056 17 311 4.8 14.5 0.00 0.28 0.18 66 1012.9
20200531033529 17 311 0.0 9.7 0.00 0.28 0.18 65 1012.9
20200531033019 17 270 3.2 29.0 0.00 0.28 0.18 66 1012.9
20200531032551 17 309 4.8 29.0 0.00 0.28 0.18 65 1012.8
20200531032024 17 282 4.8 14.5 0.00 0.28 0.18 67 1012.8
20200531031040 17 300 1.6 9.7 0.00 0.28 0.18 68 1012.8
20200531030520 17 274 1.6 9.7 0.00 0.28 0.18 68 1012.8
20200531030201 17 298 1.6 8.0 0.00 0.28 0.18 69 1012.8
20200531025524 17 271 0.0 9.7 0.00 0.28 0.18 69 1012.8
20200531024623 17 225 1.6 6.4 0.00 0.28 0.18 69 1012.7
20200531024031 17 44 0.0 3.2 0.00 0.28 0.18 70 1012.6
20200531023155 17 44 0.0 4.8 0.00 0.28 0.18 70 1012.6
20200531022520 17 260 0.0 4.8 0.00 0.28 0.18 70 1012.6
20200531022100 17 269 1.6 6.4 0.00 0.28 0.18 70 1012.5
20200531021552 17 32 0.0 6.4 0.00 0.28 0.18 71 1012.5
20200531021024 17 328 3.2 11.3 0.00 0.28 0.18 71 1012.4
20200531020556 17 207 1.6 11.3 0.00 0.28 0.18 73 1012.4
20200531020059 17 297 0.0 3.2 0.00 0.28 0.18 74 1012.4
20200531015557 17 250 0.0 0.0 0.00 0.28 0.18 72 1011.9
20200531015036 17 250 0.0 0.0 0.00 0.28 0.18 71 1011.8
20200531014525 18 250 0.0 0.0 0.00 0.28 0.18 71 1011.7
20200531014104 18 250 0.0 0.0 0.00 0.28 0.18 70 1011.7
20200531013531 18 250 0.0 0.0 0.00 0.28 0.18 68 1011.6
20200531012542 18 250 0.0 0.0 0.00 0.28 0.18 67 1011.5
20200531012050 19 250 0.0 0.0 0.00 0.28 0.18 66 1011.4
20200531011053 19 250 0.0 0.0 0.00 0.28 0.18 65 1011.2
20200531010522 20 250 0.0 0.0 0.00 0.28 0.18 61 1011.2
20200531005532 20 250 0.0 0.0 0.00 0.28 0.18 61 1011.1
20200531005008 20 250 0.0 0.0 0.00 0.28 0.18 60 1011.0
20200531004554 20 250 0.0 0.0 0.00 0.28 0.18 61 1011.1
20200531004023 21 250 0.0 1.6 0.00 0.28 0.18 60 1011.0
20200531003104 21 250 0.0 0.0 0.00 0.28 0.18 58 1011.0
20200531002530 21 250 0.0 0.0 0.00 0.28 0.18 56 1011.0
20200531002059 21 250 0.0 3.2 0.00 0.28 0.18 55 1011.0
20200531001628 21 250 0.0 8.0 0.00 0.33 0.18 54 1011.0
20200531001011 21 213 1.6 6.4 0.00 0.33 0.18 53 1010.9
20200531000556 22 254 0.0 1.6 0.00 0.33 0.18 53 1010.9
20200531000011 22 254 0.0 6.4 0.00 0.33 0.18 52 1010.9
20200530235550 22 254 1.6 6.4 0.00 0.33 0.18 51 1010.9
20200530235026 22 273 0.0 4.8 0.00 0.33 0.18 51 1010.8
20200530234512 22 273 0.0 4.8 0.00 0.33 0.18 50 1010.8
20200530234048 22 273 0.0 3.2 0.00 0.33 0.18 52 1010.7
20200530233526 22 273 0.0 4.8 0.00 0.33 0.18 49 1010.7
20200530233001 22 273 0.0 6.4 0.00 0.33 0.18 49 1010.8
20200530232543 22 273 1.6 6.4 0.00 0.33 0.18 48 1010.8
20200530232025 22 256 1.6 11.3 0.00 0.33 0.18 49 1010.8
20200530231042 22 183 1.6 4.8 0.00 0.71 0.18 47 1010.7
20200530230522 23 183 1.6 3.2 0.00 0.71 0.18 46 1010.5
20200530225529 23 183 0.0 1.6 0.00 0.71 0.18 49 1010.4
20200530224618 23 183 0.0 1.6 0.00 0.71 0.18 49 1010.3
20200530224019 23 183 0.0 1.6 0.00 0.71 0.18 47 1010.2
20200530223119 23 183 0.0 1.6 0.00 0.71 0.18 42 1010.2
20200530222515 23 183 0.0 3.2 0.00 0.71 0.18 41 1010.1
20200530222059 23 183 0.0 3.2 0.00 0.71 0.18 41 1010.1
20200530221555 24 243 0.0 6.4 0.00 0.79 0.18 41 1010.1
20200530221016 24 243 1.6 6.4 0.00 0.79 0.18 40 1010.1
20200530220555 24 196 0.0 8.0 0.00 0.79 0.18 40 1010.0
20200530220016 25 195 1.6 11.3 0.00 0.79 0.18 38 1010.0
20200530215607 25 231 3.2 11.3 0.00 0.79 0.18 38 1010.0
20200530215033 25 213 3.2 11.3 0.00 0.79 0.18 36 1010.0
20200530214525 26 230 4.8 9.7 0.00 0.79 0.18 35 1010.0
20200530214050 26 144 3.2 9.7 0.00 0.79 0.18 37 1010.0
20200530213528 26 122 0.0 8.0 0.00 0.79 0.18 36 1010.0
20200530213032 26 19 1.6 8.0 0.00 0.79 0.18 40 1010.0
20200530212548 26 248 1.6 6.4 0.00 0.79 0.18 42 1009.9
20200530212032 26 5 1.6 11.3 0.00 0.79 0.18 40 1010.1
20200530211521 26 199 1.6 14.5 0.00 0.79 0.18 38 1010.1
20200530211048 25 16 4.8 14.5 0.00 0.79 0.18 37 1010.2
20200530210522 25 300 0.0 9.7 0.00 0.79 0.18 40 1010.2
20200530205528 25 232 1.6 8.0 0.00 0.79 0.18 38 1010.3
20200530205010 25 253 3.2 9.7 0.00 0.79 0.18 36 1010.3
20200530204625 26 231 1.6 6.4 0.00 0.79 0.18 37 1010.2
20200530204036 26 231 1.6 11.3 0.00 0.79 0.18 33 1010.3
20200530203502 26 272 3.2 14.5 0.00 0.79 0.18 40 1010.3
20200530203230 26 247 3.2 16.1 0.00 0.79 0.18 36 1010.3
20200530202523 26 223 1.6 11.3 0.00 0.79 0.18 34 1010.3
20200530201618 26 180 4.8 14.5 0.00 0.79 0.18 36 1010.4
20200530201019 26 198 4.8 9.7 0.00 0.79 0.18 35 1010.4
20200530200628 26 20 1.6 12.9 0.00 0.79 0.18 36 1010.4
20200530200025 26 272 4.8 12.9 0.00 0.79 0.18 35 1010.4
20200530195600 26 271 3.2 8.0 0.00 0.79 0.18 40 1010.3
20200530194523 26 302 6.4 14.5 0.00 0.79 0.18 37 1010.4
20200530194107 26 300 3.2 11.3 0.00 0.79 0.18 41 1010.4
20200530193525 26 193 3.2 11.3 0.00 0.79 0.18 38 1010.4
20200530193002 26 5 1.6 19.3 0.00 0.79 0.18 41 1010.5
20200530192544 26 271 6.4 19.3 0.00 0.79 0.18 36 1010.5
20200530192018 26 251 3.2 11.3 0.00 0.79 0.18 39 1010.4
20200530191650 26 225 3.2 16.1 0.00 0.79 0.18 41 1010.4
20200530191118 26 211 1.6 16.1 0.00 0.79 0.18 42 1010.5
20200530190508 26 276 6.4 14.5 0.00 0.79 0.18 38 1010.6
20200530190130 26 275 3.2 11.3 0.00 0.79 0.18 41 1010.5
20200530185514 26 345 3.2 11.3 0.00 0.79 0.18 43 1010.6
20200530185051 25 355 4.8 11.3 0.00 0.79 0.18 42 1010.5
20200530184539 25 277 4.8 12.9 0.00 0.79 0.18 41 1010.6
20200530183613 25 237 8.0 16.1 0.00 0.79 0.18 40 1010.7
20200530183024 25 284 4.8 14.5 0.00 0.79 0.18 45 1010.7
20200530182600 25 272 1.6 16.1 0.00 0.79 0.18 42 1010.8
20200530182032 25 338 4.8 16.1 0.00 0.79 0.18 44 1010.8
20200530181518 25 302 4.8 20.9 0.00 0.79 0.18 43 1010.8
20200530181052 25 271 9.7 20.9 0.00 0.79 0.18 40 1010.9
20200530180511 25 19 3.2 12.9 0.00 0.79 0.18 49 1010.9
20200530180113 24 288 4.8 16.1 0.00 0.79 0.18 43 1011.0
20200530175518 25 273 6.4 16.1 0.00 0.79 0.18 42 1011.0
20200530175057 24 270 4.8 16.1 0.00 0.79 0.18 43 1011.0
20200530174552 25 258 6.4 16.1 0.00 0.79 0.18 43 1011.0
20200530174012 24 300 6.4 16.1 0.00 0.79 0.18 48 1011.0
20200530173549 24 261 3.2 12.9 0.00 0.79 0.18 52 1011.2
20200530173227 24 271 4.8 16.1 0.00 0.79 0.18 45 1011.2
20200530172503 24 16 4.8 16.1 0.00 0.79 0.18 48 1011.1
20200530172049 24 185 8.0 14.5 0.00 0.79 0.18 47 1011.2
20200530171624 24 280 3.2 12.9 0.00 0.79 0.18 50 1011.2
20200530170540 24 277 3.2 11.3 0.00 0.79 0.18 51 1011.2
20200530170003 24 259 1.6 17.7 0.00 0.79 0.18 57 1011.2
20200530165618 23 314 4.8 17.7 0.00 0.79 0.18 53 1011.2
20200530165023 23 240 4.8 9.7 0.00 0.79 0.18 49 1011.3
20200530164637 23 14 3.2 17.7 0.00 0.79 0.18 51 1011.4
20200530164034 23 302 1.6 11.3 0.00 0.79 0.18 52 1011.5
20200530163512 23 338 3.2 16.1 0.00 0.79 0.18 57 1011.4
20200530163154 22 302 3.2 16.1 0.00 0.79 0.18 57 1011.5
20200530162524 22 9 3.2 14.5 0.00 0.79 0.18 54 1011.5
20200530162002 22 273 6.4 14.5 0.00 0.79 0.18 54 1011.6
20200530161551 22 355 1.6 9.7 0.00 0.79 0.18 61 1011.6
20200530161018 21 5 3.2 12.9 0.00 0.79 0.18 60 1011.8
20200530160559 21 325 3.2 17.7 0.00 0.79 0.18 58 1011.8
20200530160024 21 224 8.0 17.7 0.00 0.79 0.18 56 1011.9
20200530155601 21 225 4.8 14.5 0.00 0.79 0.18 58 1011.8
20200530155017 21 285 4.8 14.5 0.00 0.79 0.18 62 1011.9
20200530154635 21 234 4.8 14.5 0.00 0.79 0.18 63 1012.0
20200530154040 21 16 1.6 14.5 0.00 0.79 0.18 62 1012.0
20200530153505 20 288 4.8 14.5 0.00 0.79 0.18 64 1012.1
20200530153134 20 269 6.4 14.5 0.00 0.79 0.18 64 1012.1
20200530152533 20 299 3.2 22.5 0.00 0.79 0.18 68 1012.1
20200530151613 20 254 9.7 24.1 0.00 0.79 0.18 64 1012.2
20200530151025 19 265 8.0 24.1 0.00 0.79 0.18 67 1012.3
20200530150559 19 215 3.2 14.5 0.00 0.79 0.18 65 1012.2
20200530150205 19 255 1.6 14.5 0.00 0.79 0.18 69 1012.4
20200530145041 19 261 3.2 12.9 0.00 0.79 0.18 70 1012.3
20200530144538 19 280 1.6 14.5 0.00 0.79 0.18 69 1012.4
20200530144059 19 281 3.2 16.1 0.00 0.79 0.18 69 1012.4
20200530143536 18 312 4.8 16.1 0.00 0.79 0.18 70 1012.4
20200530143032 18 294 4.8 14.5 0.00 0.79 0.18 69 1012.4
20200530142556 18 224 3.2 16.1 0.00 0.79 0.18 70 1012.4
20200530142029 19 273 6.4 16.1 0.00 0.79 0.18 69 1012.4
20200530141510 19 300 6.4 14.5 0.00 0.81 0.18 69 1012.4
20200530141048 19 320 3.2 8.0 0.00 0.81 0.18 75 1012.3
20200530140522 18 355 3.2 12.9 0.00 0.81 0.18 75 1012.3
20200530135527 18 196 8.0 14.5 0.00 0.81 0.18 72 1012.3
20200530135003 18 250 4.8 14.5 0.00 0.81 0.18 75 1012.3
20200530134632 18 267 3.2 11.3 0.00 0.81 0.18 75 1012.4
20200530134022 18 307 3.2 12.9 0.00 0.81 0.18 74 1012.3
20200530133055 19 275 3.2 14.5 0.00 0.81 0.18 77 1012.3
20200530132523 19 360 0.0 6.4 0.00 0.81 0.18 79 1012.4
20200530131600 18 270 1.6 9.7 0.00 0.81 0.18 77 1012.4
20200530131026 18 355 1.6 9.7 0.00 0.81 0.18 76 1012.4
20200530130605 18 325 3.2 9.7 0.00 0.81 0.18 79 1012.3
20200530130021 18 5 4.8 12.9 0.00 0.81 0.18 78 1012.2
20200530125559 18 339 1.6 12.9 0.00 0.81 0.18 80 1012.1
20200530125036 18 265 4.8 12.9 0.00 0.81 0.18 80 1012.1
20200530124513 18 5 3.2 11.3 0.00 0.81 0.18 85 1012.1
20200530124053 17 327 1.6 14.5 0.00 0.81 0.18 86 1012.0
20200530123537 17 355 1.6 6.4 0.00 0.81 0.18 87 1012.0
20200530123021 17 298 1.6 6.4 0.00 0.81 0.18 88 1012.0
20200530122549 17 355 1.6 6.4 0.00 0.81 0.18 87 1011.9
20200530122102 17 360 1.6 12.9 0.00 0.81 0.18 87 1011.9
20200530121518 17 346 3.2 12.9 0.00 0.81 0.18 87 1011.8
20200530121044 17 301 3.2 11.3 0.00 0.81 0.18 88 1011.8
20200530120532 17 301 1.6 14.5 0.00 0.81 0.18 91 1011.7
20200530115519 17 360 0.0 8.0 0.00 0.81 0.18 91 1011.5
20200530114606 17 265 0.0 12.9 0.00 0.81 0.18 92 1011.4
20200530114015 16 288 3.2 12.9 0.00 0.81 0.18 93 1011.3
20200530113602 16 16 0.0 4.8 0.00 0.81 0.18 94 1011.3
20200530113050 16 249 0.0 6.4 0.00 0.81 0.18 95 1011.2
20200530112513 16 205 0.0 6.4 0.00 0.81 0.18 95 1011.2
20200530112054 16 284 0.0 4.8 0.00 0.81 0.18 95 1011.1
20200530111548 16 269 0.0 4.8 0.00 0.81 0.18 95 1010.9
20200530111012 16 355 0.0 9.7 0.00 0.81 0.18 95 1011.0
20200530110602 16 266 0.0 9.7 0.00 0.81 0.18 95 1011.0
20200530110019 16 270 1.6 6.4 0.03 0.81 0.18 96 1011.0
20200530105605 16 262 0.0 3.2 0.03 0.81 0.18 96 1011.0
20200530105032 16 187 0.0 3.2 0.03 0.81 0.18 96 1011.1
20200530104515 16 187 0.0 4.8 0.03 0.81 0.18 96 1011.1
20200530104057 16 187 0.0 4.8 0.03 0.81 0.18 96 1011.0
20200530103530 16 275 0.0 0.0 0.03 0.81 0.18 96 1011.0
20200530103011 16 275 0.0 0.0 0.03 0.81 0.18 96 1011.0
20200530102557 16 257 0.0 0.0 0.03 0.81 0.18 96 1010.8
20200530102029 16 257 0.0 0.0 0.03 0.81 0.18 96 1010.9
20200530101520 16 257 0.0 0.0 0.03 0.81 0.18 96 1010.9
20200530101051 16 257 0.0 1.6 0.03 0.81 0.18 96 1010.9
20200530100529 16 258 0.0 1.6 0.03 0.81 0.18 95 1010.7
20200530095534 16 258 0.0 3.2 0.00 0.79 0.15 95 1010.7
20200530095008 16 258 0.0 0.0 0.00 0.79 0.15 95 1010.6
20200530094628 16 258 0.0 0.0 0.00 0.79 0.15 95 1010.5
20200530094032 16 258 0.0 0.0 0.00 0.79 0.15 95 1010.4
20200530093506 16 258 0.0 0.0 0.00 0.79 0.15 95 1010.4
20200530093123 16 258 0.0 0.0 0.00 0.79 0.15 95 1010.4
20200530092535 16 258 0.0 0.0 0.00 0.79 0.15 95 1010.3
20200530092006 16 258 0.0 0.0 0.00 0.79 0.15 95 1010.3
20200530091608 16 258 0.0 3.2 0.00 0.79 0.15 95 1010.1
20200530091034 16 258 0.0 3.2 0.00 0.79 0.15 95 1010.2
20200530090501 16 258 0.0 3.2 0.00 0.79 0.15 95 1010.1
20200530090052 16 258 0.0 3.2 0.00 0.79 0.15 95 1010.1
20200530085501 17 258 0.0 0.0 0.00 0.79 0.15 95 1010.0
20200530085043 17 258 0.0 4.8 0.00 0.79 0.15 95 1010.1
20200530084540 17 258 0.0 4.8 0.00 0.79 0.15 95 1010.1
20200530083541 17 258 0.0 4.8 0.00 0.79 0.15 95 1010.1
20200530083022 17 258 1.6 4.8 0.00 0.79 0.15 95 1010.0
20200530082039 17 198 0.0 4.8 0.00 0.79 0.15 95 1010.0